User: anonymous   Login
Location: Stonelick Lake State Park
(39.2170°N, 84.0850°W)
Time: 05:05:36
(UTC-05:00)
Language:

Lacrosse 5 - Orbit

View from above orbital plane
View from above orbital plane
View from above satellite
View from above satellite

Ground track
Ground track

The orbit data is extracted from the following two-line orbital elements,

1 28646U 05016A   16044.18056790 0.00000000  00000-0  00000-0 0    02
2 28646  57.0130 154.7312 0005000 104.0180 255.9820 14.52121132    09
Epoch (UTC): 13 February 2016 04:20:01
Eccentricity: 0.0005000
inclination: 57.0130°
perigee height: 715 km
apogee height: 722 km
right ascension of ascending node: 154.7312°
argument of perigee: 104.0180°
revolutions per day: 14.52121132
mean anomaly at epoch: 255.9820°
orbit number at epoch: 0

The dashed part of the orbit path shows where the satellite is in the earth's shadow,  

DLR